TITAN 3C TRANSTAGE DEB, 21692

Orbit data source: Space-Track

TITAN 3C TRANSTAGE DEB, 21692 is space debris in HEO originally from a launch on Tue, 21 Dec 1965 UTC launched from the Air Force Eastern Test Range (AFETR). Debris objects in space refer to the collection of defunct objects orbiting the Earth. Examples of debris include non-operational satellites, rocket bodies, and fragments generated from explosions, collisions, or faulty payload assembly.

Loading next visibility...
Identifier
21692, 1965-108AF
Orbit
HEO
Last TLE update
14 hours ago
Origin
Manufacturer
Unknown
Mission
Spacecraft
Bus & Motor
Unknown
Mass
Unknown
Launch date (UTC)
1965-12-21 (60 years ago)
Launch vehicle
Unknown
Launch site
Air Force Eastern Test Range (AFETR)
Object type
Payload
Rocket body
Debris
Shape & HBR
Unknown
Radar Cross Section
Medium (>0.1 m² and <1 m²)

Expand to show TLE details & history

TLE from 14 hours ago
0 TITAN 3C TRANSTAGE DEB
1 21692U 65108AF  25199.91529277  .00003424  00000-0  13849-1 0  9997
2 21692  27.9233  13.1124 6178963 171.5240 211.0235  3.57028851152506
Epoch: 2025-07-18T21:58Z
TLE epoch observation values (Epoch: 2025-07-18T21:58:01.295Z)
Latitude
0.44274°
Longitude
107.48392°
Altitude
22,236.442 km
Speed
2.412 km/s
True Right ascension
00h 55m 47s
True Declination
0° 26' 31"
Sunlit
Object was in daylight at epoch
Visualization orbit readout
Latitude
6.52862°
Longitude
118.7508°
Altitude
19,793.97 km
Speed
2.902 km/s
Apparent Right ascension
01h 51m 14s
Apparent Declination
-2° 58' 02"
Sunlit
Object is in daylight
Visualization observer readout
Local Sidereal Time
00:55:38
Azimuth
160.074° S
Elevation
45.261°
Doppler factor
1
Orbital elements
Apogee altitude
22,883.459 km
Perigee altitude
532.667 km
Semi-major axis
18,086.2 km
Eccentricity
0.6179
Inclination
27.9233°
RAAN
13.1124°
Arg. of periapsis
171.524°
True anomaly
189.4546°
Mean anomaly
211.0235°
Eccentric anomaly
199.31412°
Mean motion
0.89232 °/min
Orbital period
403.44 mins
BSTAR
0.013849
Loading maneuver chart data...
Loading SW <> Apogee altitude chart data...
|